sat.trackr.live / text

‹ back to catalog

STARLINK-37735

NORAD 69243 · 2026-117F

PAYLOAD ACTIVE UNKNOWN

§ Identity

Operator
Country
US
Launch date
2026-05-29
Launch site
AFETR
Launch vehicle
Mass (kg)
RCS (m²)

Purposes: comms

External: N2YO · Heavens-Above · Gunter

§ Orbital elements

Epoch: 2026-09-20T02:03:04.919040Z

Period
93.85 min
Inclination
53.1573°
Eccentricity
0.0001141
Mean motion
15.34356571 rev/d
Perigee alt
462.1 km
Apogee alt
463.6 km
Semi-major
6,841.0 km
B*
4.1774e-4
RAAN
155.6680°
Arg perigee
104.7203°
Mean anomaly
255.3926°
Rev number
1,760

§ Raw data

STARLINK-377351 69243U 26117F   26263.08547360  .00013744  00000+0  41774-3 0  99972 69243  53.1573 155.6680 0001141 104.7203 255.3926 15.34356571 17601

JSON: /api/v1/satellites/69243 · /tle

For live sub-satellite position, see the globe view (requires WebGL).

§ Visibility from observer

Set your observer location to see the next 7 days of passes ≥ 10°. The values pass through the URL so the page stays shareable.

No JS? Fill the form by hand. The geolocation button needs JavaScript.